Weather Roundup
Issued by NWS Corpus Christi, TX

Home | Current Version | Previous Version | Text Only | Print | Product List | Glossary On
Versions: 1 2 3 4 5 6 7 8 9 10 11 12 13 14 15 16 17 18 19 20 21 22 23 24 25 26 27 28 29 30 31 32 33 34 35 36 37 38 39 40 41 42 43 44 45 46 47 48 49 50
000
ASUS44 KCRP 210710
HRRCRP

SOUTH TEXAS REGIONAL WEATHER ROUNDUP
NATIONAL WEATHER SERVICE CORPUS CHRISTI TX
100 AM CST WED FEB 21 2018


TXZ229>244-210800-
...CORPUS CHRISTI AREA OBSERVATIONS...

CITY           SKY/WX    TMP DP  RH WIND       PRES   REMARKS
CORPUS CHRISTI LGT RAIN  71  71 100 SE22      29.96F
NAS CORPUS CHR LGT RAIN  70  70 100 SE14      30.00F FOG
ROCKPORT       LGT RAIN  70  69  97 SE12      30.02F FOG
KINGSVILLE ARP FAIR      73  73 100 E8        29.95F FOG
KINGSVILLE NAS LGT RAIN  73  71  93 SE15G23   29.93F
ALICE          MOCLDY    71  69  93 SE13      29.94F
$$

...VICTORIA AREA OBSERVATIONS...

CITY           SKY/WX    TMP DP  RH WIND       PRES   REMARKS
PORT LAVACA    CLOUDY    71  69  93 SE8       30.05S FOG
VICTORIA       TSTM      71  69  93 SE5       30.05R FOG
BEEVILLE       LGT RAIN  70  70  99 E17G23    29.92F
PLEASANTON     LGT RAIN  70  69  96 S20       29.96R
SAN ANTONIO    LGT RAIN  71  65  81 SE12      29.98F
$$

...LAREDO AREA OBSERVATIONS...

CITY           SKY/WX    TMP DP  RH WIND       PRES   REMARKS
LAREDO         CLOUDY    71  67  87 SE13      29.96R
COTULLA        CLOUDY    71  69  93 SE17G25   29.92F
DEL RIO        CLEAR     71  67  87 E10       29.89S
MCALLEN        CLOUDY    77  72  84 SE12      29.97F
HEBBRONVILLE   CLOUDY    67  64  90 S8        29.99S
$$

...OTHER TEXAS OBSERVATIONS...

CITY           SKY/WX    TMP DP  RH WIND       PRES   REMARKS
BROWNSVILLE    LGT RAIN  75  72  90 E8        30.00S
HOUSTON        CLOUDY    74  70  87 S9        30.09R
COL. STATION   LGT RAIN  71  70  96 S17       30.03F
AUSTIN         CLOUDY    71  70  96 SE12      30.00F
WACO           CLOUDY    41  39  93 N13G21    30.13R
FORT WORTH     LGT RAIN  39  36  89 N16       30.17R WCI  30
WICHITA FALLS  CLOUDY    29  24  82 N20       30.31R WCI  16
LUBBOCK        CLEAR     28  16  60 NE14      30.19R WCI  17
EL PASO        CLEAR     48  35  60 N5        30.05R
$$

...MARINE OBSERVATIONS...

STATION/POSITION TIME  SKY/WX   TEMP    WIND        PRES    VSBY  WAVE   SWELL
                                AIR SEA DIR/SP/G                  HT/PER HT/PER
                 (UTC)          (F)     (DEG/KT/KT) (MB)    (MI)  (FT/S) (FT/S)
PORT ARANSAS     NOT AVBL
BUOY 90 E PORT A 0650            74 71  140/ 12/ 16 1017.4R         7/ 7   7/ 7
BUOY 200 E PT IS 0650            75 74  120/ 17/ 23 1016.6F         7/ 8   2/11
BUOY 15 E GALVES 0550            67 63  130/ 12/ 14 1018.4          4/ 7   3/ 7
$$



USA.gov is the U.S. government's official web portal to all federal, state and local government web resources and services.